Wind_Speed
20 21 22 23 24 25 25 26 27 27 27 28 28 28 28 29 28 26 23 23 23 21 16 12 6 6 9 9 10 10 10 10 14 19 15 9 14 15 13 11 10 11 9 8 11 11 11 9 6 9 3 3 1 1 3 3 2 4 3 3 2 1 0 1 1 2 4 3 1 2 2 6 2 2 1 5 13 14 13 14 12 14 14 14 16 17 20 24
19 20 21 22 23 24 25 26 26 26 27 27 27 27 27 28 28 26 23 23 23 20 16 12 8 4 9 9 9 7 5 3 9 14 12 13 16 13 11 10 9 10 10 9 11 10 7 5 8 10 5 1 2 1 2 2 2 3 2 2 2 3 1 2 4 4 4 4 1 2 2 6 2 1 2 5 7 11 13 9 10 14 11 13 16 19 23 26
18 20 21 22 22 23 24 25 25 26 26 26 26 26 26 27 27 26 23 22 22 20 15 12 10 2 8 10 8 4 1 2 5 6 10 16 14 11 10 9 9 9 10 10 9 9 6 7 10 6 3 2 2 1 1 2 2 1 3 2 5 4 2 1 6 5 4 5 2 4 2 4 2 1 3 6 6 8 10 6 8 11 9 9 11 17 22 23
18 19 20 21 22 22 23 24 25 25 25 25 25 25 25 25 26 26 24 22 21 19 15 11 9 5 4 9 7 2 2 5 3 4 10 13 11 9 9 9 10 9 11 12 10 10 8 9 9 2 2 3 2 2 2 1 2 0 3 3 7 2 3 3 5 6 5 6 3 3 4 4 4 2 3 7 8 6 5 6 10 12 10 9 8 13 18 19
18 19 20 21 21 22 22 23 24 24 24 24 24 24 23 24 24 25 24 21 20 19 15 11 8 6 2 5 8 5 2 4 2 5 10 11 9 8 9 9 9 9 11 12 10 11 9 5 3 2 2 2 3 3 1 2 2 1 1 4 4 2 2 5 5 6 5 6 6 5 5 3 3 4 3 7 8 4 5 9 12 12 10 10 9 11 14 15
17 19 19 20 21 21 22 22 23 23 24 23 23 23 22 22 22 24 23 21 19 18 15 10 6 5 5 2 5 4 2 1 2 6 10 9 8 8 9 10 9 9 10 13 12 12 10 6 5 4 2 1 1 2 1 2 3 1 4 2 2 3 1 4 5 5 6 8 5 3 1 2 4 6 6 11 10 7 9 11 13 12 13 15 14 12 11 11
17 18 19 20 20 21 21 22 22 23 23 23 22 22 22 21 21 22 22 21 19 17 15 11 6 1 3 4 0 0 3 2 3 7 9 8 6 7 9 10 10 9 10 15 15 9 7 7 5 2 2 2 1 1 2 0 3 4 3 3 2 2 2 3 5 5 7 7 2 2 3 2 5 6 8 13 11 11 12 12 15 15 16 18 14 12 11 10
17 18 19 20 20 20 21 21 22 22 22 23 22 22 21 20 20 21 21 20 18 16 14 11 7 2 2 2 1 2 2 2 2 6 8 6 5 7 8 10 11 9 11 14 13 7 4 6 5 3 3 1 1 2 1 3 2 4 2 3 1 3 2 2 6 6 5 4 2 5 6 5 4 10 10 11 11 11 12 13 14 15 15 14 11 10 9 10
17 18 19 20 20 20 20 21 22 22 22 22 22 21 21 20 20 20 21 19 17 16 13 10 7 3 3 2 2 2 2 2 2 6 8 7 6 7 7 10 12 10 10 10 13 10 4 3 3 3 2 2 2 4 1 3 2 2 1 2 2 3 3 1 3 4 3 1 3 6 5 4 6 12 9 9 11 11 12 12 11 12 12 10 9 8 8 9
17 18 19 19 20 20 20 21 22 22 22 22 22 21 21 20 19 20 20 19 16 15 13 9 6 4 4 1 3 1 2 3 5 7 9 9 6 5 7 12 13 11 9 8 12 10 3 1 3 1 1 2 2 3 1 3 2 2 2 2 3 4 3 1 2 2 2 1 2 4 2 4 2 7 5 7 10 12 12 11 10 11 10 9 7 7 9 10
16 17 18 19 20 20 21 21 22 22 22 22 22 21 20 20 19 19 20 18 15 13 13 10 6 5 4 3 3 2 3 3 5 8 10 10 7 5 8 12 13 10 8 7 8 7 3 1 3 1 0 1 2 4 2 2 1 2 3 4 6 3 2 2 3 2 1 1 2 4 2 3 2 4 10 11 10 12 14 12 10 11 9 8 7 6 7 9
15 17 18 19 19 20 21 21 22 23 22 23 22 21 21 20 19 20 19 17 13 13 13 10 5 5 2 3 3 4 3 2 4 9 10 9 8 7 8 11 12 8 6 5 4 5 4 3 4 2 1 1 3 2 0 2 1 3 4 2 5 3 0 3 3 3 3 1 2 4 3 2 1 7 14 13 10 11 13 12 9 10 8 7 7 5 6 7
15 16 17 18 19 20 20 21 22 22 23 23 22 22 21 20 21 20 18 15 12 11 11 7 4 2 1 1 2 4 3 2 4 7 8 8 7 6 7 9 10 7 5 4 2 3 4 3 3 1 2 1 2 2 1 1 1 1 2 3 2 6 4 6 3 2 4 2 3 4 2 5 2 10 15 12 12 13 12 10 9 8 7 6 6 5 5 6
14 15 17 17 19 19 20 21 22 22 24 23 23 23 21 21 21 18 16 13 10 10 9 4 2 2 2 0 2 5 3 3 4 6 7 7 6 5 5 7 7 6 5 3 2 2 3 2 3 1 2 1 2 3 3 3 2 2 2 2 3 3 4 6 3 3 4 3 1 4 3 6 3 12 14 11 13 14 12 9 8 7 6 6 5 5 5 5
14 14 16 17 18 19 20 21 21 23 24 24 25 23 22 21 18 16 13 10 10 10 4 1 1 2 2 1 3 4 2 2 2 7 7 8 7 3 4 5 3 3 3 3 2 1 2 2 3 1 3 2 1 3 4 3 3 2 2 3 2 2 3 5 3 5 6 3 1 5 3 4 3 10 11 9 10 12 12 9 8 7 6 6 5 5 5 4
13 14 15 16 18 18 19 20 21 23 23 25 25 22 22 19 16 15 8 8 12 8 0 1 1 1 1 1 3 4 2 2 2 5 6 8 8 4 6 5 1 1 1 1 1 1 2 2 2 1 1 3 3 2 3 4 4 3 2 2 3 2 3 3 4 2 6 2 1 3 3 2 2 8 9 8 10 11 11 9 8 8 6 6 4 5 5 4
13 14 15 16 17 18 19 20 21 23 24 25 24 24 22 15 15 11 1 10 15 3 3 0 1 1 0 1 3 2 1 1 3 4 4 7 6 5 5 3 3 2 1 1 0 1 2 2 0 0 2 2 2 3 5 4 4 4 2 1 4 3 2 2 5 4 2 2 3 3 4 4 4 7 8 7 10 11 11 10 9 8 6 6 5 5 4 3
13 14 14 15 16 17 18 19 21 22 24 24 24 24 18 11 12 2 3 14 14 2 2 2 2 2 1 1 2 2 2 3 5 4 3 5 5 6 3 1 2 4 3 1 1 1 1 1 1 2 3 4 4 5 4 3 3 4 4 3 4 4 3 4 4 3 2 3 4 4 5 6 5 6 7 7 8 10 10 9 8 7 6 6 5 5 4 4
13 14 14 15 16 16 17 19 20 22 23 23 24 20 12 8 6 3 3 16 7 3 1 2 1 1 3 2 2 1 4 6 5 3 2 5 6 5 2 1 3 3 3 2 3 0 2 3 4 2 2 2 1 4 4 5 7 6 6 4 4 5 5 6 5 3 3 3 6 6 6 5 6 7 6 7 7 8 9 8 7 6 6 5 5 5 4 4
12 13 14 14 15 15 17 17 19 20 21 22 22 15 7 6 5 1 9 11 1 2 3 3 2 2 4 2 1 4 5 4 2 2 2 7 7 4 1 2 5 5 2 1 5 2 4 4 3 2 4 4 3 4 6 5 5 4 4 4 6 6 6 6 4 4 2 3 6 6 6 5 6 8 8 7 7 8 9 9 7 6 6 5 5 5 4 4
12 12 13 13 14 14 15 16 17 18 17 18 18 9 2 2 3 3 6 6 7 6 4 3 1 3 4 2 2 3 1 0 2 2 3 7 4 0 1 1 5 4 2 2 3 2 5 4 4 7 8 6 5 5 5 4 3 4 4 4 6 5 7 8 5 4 1 1 5 5 5 7 7 8 8 8 9 10 10 10 8 7 7 5 6 6 4 3
11 11 12 12 13 13 13 14 15 15 14 15 14 8 4 3 2 2 1 4 8 5 2 1 1 2 3 2 2 2 3 1 3 4 5 7 1 2 1 3 4 1 4 3 3 5 5 4 7 8 6 4 3 4 5 4 4 4 4 3 5 5 5 6 3 2 1 1 4 5 6 8 8 7 8 10 9 8 7 9 9 8 8 5 6 6 4 2
12 10 11 12 12 11 12 12 12 12 12 12 11 7 3 2 4 3 1 2 7 4 0 0 0 2 2 1 2 2 2 0 2 4 6 7 1 2 1 4 3 1 3 4 3 2 4 5 7 6 5 3 2 2 4 3 4 5 4 3 5 4 2 4 3 3 4 3 4 6 8 7 5 3 5 7 5 5 5 8 8 7 8 7 7 6 5 4
12 10 10 11 11 10 10 10 8 9 10 9 9 6 2 3 4 3 1 1 5 4 1 2 2 2 2 1 1 3 1 1 2 3 5 3 1 1 2 3 2 1 1 2 5 3 6 7 4 4 5 5 2 2 2 4 4 5 6 6 6 5 4 6 3 5 6 5 5 7 8 6 6 7 6 3 3 6 6 7 7 6 7 7 6 6 6 5
13 10 9 11 11 9 9 7 4 6 6 3 6 6 3 4 5 2 1 1 4 5 1 1 1 1 2 2 1 2 0 1 1 2 4 2 2 1 1 2 2 1 3 1 1 3 7 5 4 5 3 3 3 3 3 6 4 5 5 7 6 5 4 5 4 5 4 5 4 2 5 6 5 10 8 4 5 6 6 7 8 6 6 6 6 6 5 5
14 11 8 9 10 9 7 3 2 6 4 1 4 5 2 4 5 2 2 3 3 4 1 1 1 1 3 2 1 1 1 3 1 1 2 2 1 1 1 0 1 1 3 1 1 3 3 1 4 5 4 3 2 4 4 6 3 4 5 5 5 4 2 4 2 2 2 4 3 3 2 6 2 6 9 7 8 9 6 7 8 7 6 6 6 5 6 5
14 11 8 8 9 9 5 1 2 4 1 1 4 4 1 3 5 2 2 4 4 3 3 1 1 2 3 1 2 3 1 3 1 1 1 1 2 1 2 2 0 1 2 3 2 3 3 2 2 3 4 3 4 5 5 6 6 4 4 5 4 2 3 5 3 3 4 3 4 2 4 6 6 6 9 10 9 8 8 8 8 7 7 7 6 6 6 6
12 11 8 7 7 6 3 1 3 1 1 2 4 3 1 4 4 2 4 2 3 1 2 1 1 2 1 1 2 2 2 1 1 2 2 1 2 2 2 3 4 3 2 5 2 5 3 3 4 4 3 3 5 5 6 7 4 5 5 5 3 5 6 5 4 6 3 3 5 5 4 5 8 4 5 9 9 9 11 11 9 8 8 7 7 6 6 6
10 11 9 7 6 2 1 2 3 2 3 3 3 1 2 4 3 3 4 1 2 0 1 1 2 1 1 2 1 1 1 0 1 2 2 1 1 2 1 3 5 4 2 4 6 7 2 4 6 7 4 5 6 5 6 7 3 4 4 3 3 4 6 4 5 4 1 1 7 6 7 4 6 2 4 6 7 10 11 10 8 8 8 8 7 7 6 5
9 11 8 7 6 3 3 4 4 4 3 1 0 1 2 2 2 4 2 3 2 0 0 1 1 1 3 2 2 1 2 2 1 1 2 1 2 3 1 1 3 2 3 2 5 6 2 0 2 4 4 5 5 3 3 5 4 1 1 2 4 4 3 1 2 0 2 4 8 6 9 7 5 3 6 6 6 9 11 9 8 8 8 8 7 6 5 5
10 9 8 7 6 4 4 3 3 2 1 1 1 1 1 1 4 4 3 5 2 1 1 1 1 1 4 3 2 1 2 2 1 1 0 0 2 3 2 1 3 3 4 4 4 4 3 1 1 1 2 4 5 1 1 1 2 3 3 3 4 5 3 4 3 3 1 6 6 4 6 7 6 5 6 6 4 8 14 12 12 10 8 8 6 6 6 5
9 8 8 7 7 5 5 4 3 2 2 2 2 2 3 2 1 3 5 3 2 2 2 2 2 2 3 2 1 3 2 2 2 3 3 2 1 1 2 3 1 3 4 3 3 5 2 4 3 1 0 4 6 1 3 4 4 4 3 4 3 5 3 3 3 0 3 6 4 1 0 4 8 7 6 8 5 8 13 12 12 11 8 8 6 6 5 4
9 9 9 9 8 7 7 7 5 3 1 3 1 3 6 3 4 6 5 3 2 3 2 2 1 3 4 2 2 3 1 3 4 3 2 2 1 3 4 5 5 2 4 2 2 4 3 5 2 1 2 2 6 4 2 1 2 4 3 3 2 1 3 4 3 2 4 6 4 2 1 3 5 5 6 8 6 8 10 10 10 9 9 8 7 6 6 5
12 10 10 11 10 9 9 10 7 3 3 3 3 4 5 4 6 5 5 6 3 0 2 2 2 2 2 1 4 3 1 4 4 3 1 1 1 3 4 4 5 4 1 1 2 2 2 6 3 4 2 3 5 5 5 4 3 4 4 5 4 4 2 4 3 4 6 6 4 2 2 4 3 3 4 5 7 7 8 8 8 8 8 7 6 6 6 6
13 11 10 11 12 10 9 10 7 4 6 4 4 3 5 5 4 3 5 5 2 1 1 1 4 3 2 3 4 3 2 4 1 3 1 2 3 4 3 4 5 5 4 1 2 2 3 6 4 1 0 4 4 3 3 6 2 2 3 4 2 5 4 3 3 4 2 6 5 3 3 5 3 3 1 6 7 7 7 7 8 7 7 6 6 6 6 4
14 11 10 11 14 12 10 9 7 7 7 5 3 5 6 6 4 4 4 4 4 4 2 1 3 3 4 3 3 3 2 2 0 2 2 3 4 5 5 4 6 7 7 4 2 2 2 5 2 2 2 2 2 2 1 2 1 1 2 2 4 4 4 2 3 1 2 4 6 3 4 4 1 2 2 7 7 7 7 7 8 8 7 7 6 6 5 3
14 8 7 10 13 12 10 7 8 10 6 5 6 8 6 5 6 5 3 2 3 4 5 2 2 4 4 2 3 4 1 1 1 1 2 3 3 5 6 4 4 9 9 5 2 3 2 4 3 2 1 2 2 1 2 1 2 4 3 4 3 2 3 2 1 3 2 4 6 3 6 6 1 2 4 6 8 9 8 7 8 8 7 7 6 6 4 3
11 5 6 11 14 12 9 7 11 11 5 3 8 9 6 5 6 6 4 3 1 3 5 4 5 5 5 4 4 4 4 2 2 3 2 3 4 4 6 4 2 5 6 4 1 2 1 3 4 1 2 2 1 2 1 2 1 3 2 2 2 1 2 2 2 2 1 6 7 2 5 7 5 5 7 11 13 12 9 8 8 8 7 6 6 5 3 2
8 2 4 10 16 15 11 10 12 7 3 5 9 7 6 7 8 7 5 4 3 3 4 6 5 3 4 6 4 3 5 5 4 3 3 3 4 4 6 4 2 0 1 5 4 2 2 1 4 1 2 1 2 1 3 2 0 2 1 1 1 2 3 2 2 2 2 5 7 5 6 4 6 7 12 16 15 14 11 8 8 8 7 7 6 5 4 4
6 1 2 10 17 17 15 13 8 4 4 7 7 6 5 6 8 9 9 7 4 4 5 6 5 5 5 5 5 4 5 5 6 5 4 3 4 4 5 5 5 3 3 5 3 1 2 2 4 2 2 1 2 4 7 7 4 3 2 2 2 2 1 1 2 3 3 5 4 5 9 6 4 4 10 14 14 14 12 9 8 7 7 7 6 6 5 5
5 3 3 13 20 19 16 10 4 4 5 6 6 6 7 5 4 7 11 11 7 5 4 5 6 7 5 5 5 4 4 5 6 5 5 5 4 4 5 6 9 7 3 4 2 3 2 3 4 1 2 4 5 5 6 7 7 6 6 6 7 5 3 2 5 3 3 5 4 3 12 10 3 3 6 9 11 12 11 9 7 7 8 8 6 6 6 5
4 3 5 16 22 21 15 5 3 4 4 6 5 5 6 5 5 7 8 8 9 7 3 4 6 7 6 5 5 5 5 4 6 6 5 6 7 7 5 6 10 10 6 3 3 4 2 2 3 5 5 5 4 2 1 2 3 3 4 5 6 6 6 6 7 4 2 3 2 5 12 10 1 4 6 8 10 10 9 8 7 6 8 7 6 6 5 5
4 2 6 16 23 20 10 4 3 5 6 5 5 7 5 4 5 6 6 6 7 6 4 4 5 7 8 6 4 5 5 4 6 8 5 5 8 5 3 6 10 9 5 2 2 2 1 2 3 6 5 1 1 2 4 4 3 1 4 5 6 8 9 8 5 1 1 3 4 5 11 8 1 2 5 7 8 8 7 7 8 7 6 6 6 6 5 5
2 1 3 13 21 17 7 5 6 7 8 5 6 9 7 6 8 8 7 7 6 5 6 6 5 7 7 5 6 7 7 6 7 7 6 6 5 2 2 6 10 8 5 3 3 4 3 2 3 3 6 5 3 2 3 2 1 4 4 5 8 10 7 3 2 2 2 9 9 7 12 9 1 2 5 7 7 7 6 6 8 8 6 5 5 5 5 6
3 2 1 10 18 12 4 3 4 6 8 8 9 12 11 8 8 9 9 8 5 6 6 6 5 6 4 4 5 7 9 10 8 4 4 5 4 2 2 2 4 6 4 1 3 6 4 3 5 4 7 9 10 7 3 2 3 3 3 7 11 11 10 7 3 3 6 11 10 10 13 10 2 4 6 7 8 7 6 6 6 6 6 6 6 5 5 3
3 3 1 5 9 8 4 1 2 3 6 8 8 12 16 12 7 7 10 10 7 7 8 5 4 5 4 6 6 9 12 12 8 3 3 4 4 2 1 2 1 2 2 1 3 5 2 2 7 10 11 13 15 11 1 5 4 4 5 11 12 12 15 11 4 6 8 5 8 15 16 14 10 6 7 7 8 8 6 7 6 6 6 7 6 5 4 2
5 5 5 5 4 6 6 4 5 6 6 9 7 6 12 15 10 6 8 9 8 9 8 6 6 7 6 8 8 12 13 9 7 7 7 6 3 2 2 1 1 1 2 2 3 4 3 5 10 14 18 20 20 15 3 4 7 10 8 10 12 13 16 14 12 14 7 3 13 22 15 15 19 13 9 10 10 9 7 8 8 7 7 6 5 4 2 2
7 4 6 8 4 6 8 9 12 13 13 12 9 8 10 13 12 8 7 6 7 10 8 6 11 15 13 12 11 10 8 6 6 10 10 8 4 1 1 1 2 3 2 2 2 3 3 8 11 12 17 22 19 15 10 7 11 15 12 10 12 16 19 19 22 22 11 8 20 23 13 15 19 14 11 12 11 9 8 9 8 6 6 5 5 3 1 2
7 2 4 9 7 6 10 13 14 17 19 13 9 14 16 13 12 9 5 4 6 12 12 12 15 16 16 16 14 12 9 7 8 11 10 9 7 5 2 3 3 3 3 4 2 2 3 7 8 7 12 20 17 12 11 11 13 19 17 12 14 18 20 21 23 23 18 19 26 25 20 21 18 14 12 9 8 7 7 7 6 6 6 6 5 3 2 2
9 5 5 7 8 8 6 9 12 14 17 14 14 16 13 12 16 11 6 9 11 11 13 18 18 15 19 22 19 19 16 12 13 14 10 9 8 5 4 5 4 3 3 4 2 2 3 3 2 4 7 17 15 9 10 11 13 20 21 16 17 18 19 20 22 19 17 22 28 25 21 23 20 14 10 6 7 7 7 8 7 7 7 6 5 3 3 2
13 11 11 5 6 10 6 7 11 10 11 13 16 15 11 15 20 14 9 15 17 9 11 21 24 16 15 18 19 23 20 16 17 16 11 11 9 7 6 6 8 8 5 5 4 3 5 3 2 4 4 10 6 3 6 6 8 19 25 21 19 19 19 19 18 18 18 20 23 19 16 19 15 5 3 6 9 10 10 10 8 6 6 6 5 4 3 4
12 10 13 6 4 9 9 8 10 9 11 14 15 15 16 19 18 14 10 12 14 13 14 20 22 13 10 16 21 23 18 14 12 8 5 5 3 4 5 6 11 11 8 8 5 3 5 4 2 4 4 5 1 4 2 2 4 15 19 17 20 23 23 19 16 20 21 17 15 14 16 17 9 4 6 7 9 10 10 8 7 6 6 6 5 5 5 5
Wind_Direction
20 20 19 18 18 17 18 17 16 15 14 13 14 15 16 17 17 19 19 19 17 15 19 30 65 141 151 139 124 112 95 74 49 48 55 17 350 347 346 347 355 4 13 17 19 19 12 14 339 348 1 240 61 153 345 16 54 48 72 57 326 256 97 244 56 85 120 96 32 337 53 111 116 338 63 67 82 96 86 77 82 78 75 80 87 82 68 62
17 17 16 16 15 15 16 16 15 13 13 12 11 12 13 14 15 17 18 17 16 15 18 21 34 137 172 157 143 128 108 67 33 44 35 357 353 351 354 6 5 9 18 19 16 11 360 348 329 351 29 326 320 40 356 348 67 69 96 56 269 224 215 154 87 46 82 111 61 357 90 102 116 225 70 81 105 104 95 87 87 83 76 76 76 72 65 61
13 13 12 13 12 13 13 14 13 12 11 10 9 9 10 11 12 14 16 16 16 15 16 17 19 59 180 175 159 133 55 26 28 26 359 352 357 359 9 15 12 15 13 6 356 344 315 292 305 327 29 340 284 89 40 346 41 95 94 42 250 235 274 78 94 96 106 121 86 350 56 84 323 260 92 113 111 89 104 119 98 92 88 80 67 66 66 62
9 9 9 10 10 10 11 11 11 11 10 8 8 7 7 8 9 10 12 14 15 13 13 15 15 18 181 195 191 199 2 43 34 326 343 354 4 12 19 18 20 21 7 3 353 339 315 283 287 285 87 337 309 68 83 295 32 97 112 188 244 287 321 321 81 109 107 94 84 4 43 31 318 4 103 130 102 62 88 114 113 112 104 95 81 71 71 68
5 4 5 6 7 7 8 8 8 9 9 7 5 4 4 4 5 7 8 10 12 13 10 12 19 25 50 208 212 223 24 47 322 323 352 3 15 18 23 23 27 25 14 15 8 4 358 307 312 47 79 352 340 46 54 241 90 14 239 208 247 24 329 309 43 76 73 62 47 46 50 340 317 33 68 106 101 94 101 105 109 113 112 105 96 82 75 70
2 0 1 2 4 4 4 5 6 7 6 6 4 1 1 0 1 3 3 5 8 11 7 5 17 37 48 88 202 216 96 103 291 352 358 7 22 20 25 24 30 30 22 22 18 20 14 358 33 41 33 18 0 93 191 254 93 84 280 265 331 40 5 324 29 49 57 61 34 37 28 314 73 62 62 85 96 112 112 113 109 106 108 100 90 81 71 64
360 357 357 359 1 1 2 2 3 3 4 4 2 359 357 356 358 358 359 0 3 7 5 359 357 63 80 57 189 262 92 172 298 4 4 12 19 18 27 21 31 39 29 25 20 20 14 14 28 32 33 30 22 120 173 316 93 129 257 280 333 6 4 352 33 45 63 73 5 23 27 333 117 99 77 89 103 114 113 111 107 105 101 93 85 78 70 67
358 356 355 356 358 359 358 359 360 -0 0 1 -0 358 354 352 353 353 354 355 357 2 359 353 342 260 221 343 24 11 37 213 314 15 15 19 16 15 22 21 32 41 41 35 25 19 19 25 7 3 38 29 29 347 331 22 42 136 222 266 321 328 311 15 40 47 62 72 25 50 26 323 135 109 93 110 119 119 118 110 106 104 96 90 87 85 80 73
357 355 354 354 355 355 355 356 357 357 358 358 357 356 352 349 349 348 349 349 352 355 354 346 335 326 280 281 93 12 283 180 45 25 28 34 31 18 16 27 34 41 52 39 26 30 44 38 346 7 45 261 357 335 351 49 313 181 171 292 2 310 277 50 47 62 83 95 52 60 16 328 114 100 91 131 135 129 121 111 109 105 97 95 94 95 92 81
355 354 352 351 352 352 353 353 354 354 354 354 353 353 351 347 344 343 342 344 347 348 348 335 315 345 349 4 88 335 242 112 46 25 37 38 36 27 23 31 33 43 59 41 32 39 63 61 322 340 153 264 326 296 209 119 230 187 102 310 294 273 261 140 139 126 118 191 63 67 354 275 191 104 111 163 149 135 119 109 111 104 102 105 103 103 97 90
352 352 351 349 349 350 351 351 351 351 351 351 350 349 348 344 340 337 335 339 344 343 340 329 300 301 336 76 111 226 208 108 40 27 31 31 36 36 32 31 28 42 61 57 52 46 54 0 333 0 145 327 311 288 243 184 196 123 73 335 304 269 229 148 146 175 170 299 41 52 347 265 267 116 147 171 160 136 120 117 117 109 112 111 110 111 99 97
348 348 348 347 347 347 348 348 348 349 348 349 347 345 345 340 335 331 329 335 342 340 331 325 310 285 322 85 153 189 169 100 36 29 23 21 32 35 36 32 25 36 59 74 73 37 26 359 18 55 238 343 312 311 271 262 113 106 93 0 323 32 98 228 188 189 158 261 311 36 11 303 254 140 153 164 155 134 120 124 126 119 123 117 112 109 96 98
344 345 345 344 345 345 346 346 346 346 346 346 344 342 341 335 331 325 325 333 341 339 327 325 336 301 65 47 178 134 114 73 39 28 25 20 27 41 37 25 18 25 44 70 85 22 11 3 58 130 278 45 287 294 83 297 81 87 96 124 45 35 318 249 220 191 150 236 295 51 334 278 215 148 157 162 147 132 123 130 132 126 128 127 123 111 98 94
340 341 341 342 343 342 343 344 344 344 344 344 342 340 337 331 326 320 323 334 342 337 321 320 32 94 112 207 151 115 99 94 41 15 28 28 34 51 23 10 4 8 24 48 62 31 12 21 65 16 293 164 233 317 348 350 44 70 60 68 95 85 273 259 234 177 163 255 165 94 268 261 175 155 164 164 146 133 130 134 130 130 129 130 131 121 111 88
336 337 339 340 340 341 341 341 343 343 342 342 341 339 336 330 322 320 327 341 351 342 321 252 41 103 90 342 158 131 118 137 23 6 24 26 35 46 351 355 347 348 12 34 43 16 21 54 71 43 286 274 45 359 331 346 10 50 78 319 346 111 264 279 279 169 169 264 127 122 259 268 174 169 170 157 143 131 131 139 133 132 128 124 126 122 112 78
331 334 336 337 338 340 340 340 342 342 341 341 340 338 335 328 318 318 324 1 355 337 294 115 356 101 77 301 151 141 141 174 335 358 11 18 28 14 343 0 63 339 322 20 31 334 42 75 90 116 294 336 46 54 2 18 350 354 98 249 280 317 304 287 304 216 170 219 225 169 215 255 209 183 175 151 144 135 132 140 135 133 129 123 120 112 109 83
327 330 333 336 337 339 340 340 341 342 342 341 341 339 335 323 316 314 288 7 354 331 150 49 326 53 105 137 131 176 225 220 294 320 349 8 10 355 351 24 76 35 330 166 140 12 60 73 179 55 43 17 48 77 41 13 322 323 24 297 275 289 292 268 301 295 186 197 242 224 216 237 215 177 167 156 150 139 138 143 139 138 133 128 122 111 122 127
322 326 331 334 335 338 340 340 341 343 342 342 343 338 328 318 323 290 161 350 351 116 119 344 4 40 254 214 161 227 270 279 286 286 326 353 346 338 344 47 47 18 15 67 35 51 45 350 58 46 13 14 31 71 56 300 244 260 279 281 294 296 265 254 271 267 189 212 243 246 259 251 210 176 164 166 161 142 142 145 141 141 135 132 128 123 143 152
320 324 328 331 334 337 340 341 342 345 344 345 346 339 329 336 346 155 6 352 5 124 338 270 81 89 252 261 187 263 295 284 292 266 302 347 330 314 291 135 51 39 44 28 344 343 125 15 32 45 341 340 31 120 160 222 201 218 246 226 259 282 271 253 249 243 182 207 250 237 247 234 194 203 189 169 158 141 141 140 139 141 136 132 129 137 153 149
317 322 325 329 332 333 339 342 341 346 349 350 352 352 356 6 3 315 346 351 258 217 289 219 178 244 280 320 244 311 300 274 294 209 310 335 317 315 116 112 45 43 62 351 310 297 94 44 355 212 212 208 206 187 186 212 203 216 249 245 252 256 270 267 253 263 196 188 249 226 233 245 211 211 198 172 153 146 148 146 146 142 139 142 137 144 150 152
315 319 322 327 329 332 339 341 342 348 353 358 8 23 60 34 23 315 326 313 267 273 278 227 167 253 267 250 272 340 10 254 319 252 321 328 307 0 83 82 53 27 297 282 308 345 57 20 267 212 205 198 202 210 192 207 228 240 239 250 266 249 259 265 232 234 207 183 263 246 251 265 251 229 196 172 164 166 166 155 152 149 148 152 142 148 150 152
310 314 320 323 327 331 336 341 342 345 353 9 32 70 127 126 136 211 289 304 290 287 279 305 45 287 264 224 258 34 79 36 309 279 324 346 3 159 285 59 80 310 306 355 23 8 8 298 246 214 197 193 229 221 185 202 225 236 246 261 272 255 269 281 244 208 344 288 268 275 266 256 257 239 191 180 177 175 170 153 151 150 147 155 147 148 149 146
304 310 319 321 326 329 333 342 341 344 1 23 48 84 133 146 170 190 158 300 295 300 79 170 189 265 265 256 245 122 97 179 222 276 329 358 28 160 115 88 99 275 350 47 93 25 319 260 231 198 166 159 272 236 177 213 246 235 241 252 261 258 270 279 287 320 317 277 253 275 274 251 239 212 182 193 172 140 145 142 147 152 150 163 163 156 156 166
302 309 317 319 323 326 329 334 340 353 5 34 54 64 116 166 172 163 127 273 292 296 225 212 204 199 201 216 191 135 135 209 167 257 322 4 147 154 130 135 100 78 205 135 135 187 264 253 197 150 158 159 189 275 177 198 259 254 222 221 247 252 237 240 279 327 324 310 279 280 289 263 194 181 187 192 131 132 146 139 144 162 161 157 153 162 169 173
304 307 315 322 320 322 326 323 351 9 354 28 45 41 85 169 179 144 28 3 307 298 282 234 248 208 193 152 151 162 180 307 171 243 315 14 154 146 120 154 91 132 209 190 128 252 262 249 134 139 186 154 167 247 216 187 233 285 239 219 221 205 223 262 329 359 341 310 285 245 292 287 197 183 188 171 157 166 162 152 160 175 172 154 148 169 181 186
301 302 315 327 320 318 321 304 8 4 341 339 17 21 73 179 192 178 55 51 309 278 157 147 271 177 189 152 129 139 12 305 260 259 340 14 202 137 110 188 56 185 195 130 336 277 255 211 108 139 176 161 201 249 231 181 169 283 248 186 164 148 203 274 323 17 273 266 274 139 223 281 255 186 194 181 180 184 175 173 178 181 178 167 165 173 179 192
296 304 317 330 329 325 325 225 317 341 307 283 345 3 15 193 196 207 51 30 298 236 132 265 307 139 179 169 100 121 192 273 321 341 316 355 317 76 135 237 33 231 189 88 342 266 177 128 93 122 142 179 230 252 225 161 143 246 232 136 130 160 246 248 213 224 239 274 295 205 203 273 279 228 199 178 179 190 189 191 189 184 182 173 174 176 179 193
299 306 311 329 335 329 329 294 297 303 211 278 329 347 297 185 185 148 73 19 284 183 117 268 144 128 169 84 88 125 205 216 98 283 268 278 303 58 94 217 181 207 182 116 255 266 184 175 202 169 145 203 224 226 190 144 147 244 205 157 180 209 230 232 215 239 268 354 284 224 174 262 272 248 175 167 185 204 198 194 189 182 180 175 176 182 185 197
296 297 303 330 332 303 299 310 287 256 247 290 334 329 165 167 175 81 76 278 270 89 57 73 124 198 45 55 11 197 211 214 160 252 315 342 291 56 85 213 166 200 236 156 212 257 243 198 191 153 160 221 223 216 172 146 196 241 188 202 247 233 238 226 219 249 26 337 262 219 167 223 264 235 141 165 210 216 199 188 186 180 179 176 174 187 197 201
284 289 299 328 327 272 279 290 248 246 272 296 311 180 152 138 96 65 45 247 254 275 122 104 164 176 96 75 306 233 178 239 214 13 4 14 347 22 134 193 97 148 288 299 238 259 299 145 157 139 183 199 175 191 173 158 195 213 62 334 328 296 272 153 198 70 65 262 261 223 187 201 267 245 165 184 223 197 177 174 183 181 175 175 177 187 195 197
275 288 294 314 327 298 289 283 227 253 324 173 190 149 105 20 77 102 220 241 258 262 146 164 225 127 119 150 244 207 188 254 212 135 253 199 6 13 46 10 33 45 341 330 292 302 356 348 246 202 192 128 112 127 316 62 77 71 60 33 352 315 351 33 2 54 109 257 263 243 207 197 238 247 196 224 245 170 168 173 176 175 173 177 184 190 190 192
270 283 287 293 312 302 272 247 231 317 358 168 184 67 81 38 39 184 231 286 302 219 173 180 213 181 151 136 237 216 196 254 202 164 185 166 166 222 175 204 191 5 322 280 300 321 296 241 248 4 303 131 117 83 339 7 51 81 78 62 14 329 355 354 313 171 221 249 240 206 152 212 237 249 216 221 222 166 166 165 164 164 168 178 186 193 192 191
258 266 277 278 288 293 271 258 264 296 278 173 144 53 84 116 230 218 227 269 253 207 143 122 145 148 134 102 270 228 153 241 213 177 193 154 198 269 257 217 169 169 265 252 336 318 302 296 289 103 287 166 140 154 237 284 125 137 135 116 122 7 334 288 263 266 273 270 244 195 6 275 260 277 230 197 172 152 147 145 155 157 161 178 188 187 187 193
260 260 267 272 271 276 273 270 276 262 206 157 94 72 105 181 237 228 224 235 236 129 80 110 102 94 123 174 237 198 147 260 204 145 192 98 78 268 273 254 182 156 208 345 325 233 254 300 255 180 230 176 164 183 174 147 147 185 164 134 150 160 218 257 229 249 280 288 263 228 275 236 206 294 266 163 138 135 135 140 150 154 164 176 178 173 182 197
263 255 258 268 263 265 266 265 267 216 184 139 95 131 170 207 238 227 224 230 224 94 35 67 95 102 256 270 259 210 204 267 174 108 182 168 176 203 205 227 196 152 124 140 269 197 205 258 247 203 258 143 171 220 148 112 98 249 136 111 182 178 180 231 208 200 282 306 274 204 222 222 190 319 355 125 133 135 140 148 146 159 176 168 165 174 183 191
254 251 256 260 257 260 257 252 237 196 173 130 138 200 206 212 198 196 218 205 177 150 123 10 89 147 249 273 268 247 201 253 129 82 241 208 202 209 203 214 190 168 162 171 223 215 240 269 267 23 3 119 165 224 139 109 156 204 140 176 224 171 139 214 264 18 45 299 268 199 245 273 347 302 180 141 150 152 157 164 158 173 179 162 170 184 180 163
237 238 245 247 250 249 245 236 198 181 157 131 194 213 213 213 198 204 221 171 170 137 126 201 213 190 219 239 240 224 170 291 235 134 247 238 230 202 199 228 190 183 189 176 211 219 224 274 251 144 228 234 195 119 31 7 133 141 184 218 203 117 103 128 280 342 42 269 266 199 241 257 174 225 214 174 178 181 183 179 171 180 173 167 181 178 165 146
220 221 242 240 240 236 231 207 177 169 135 151 221 227 211 214 212 208 190 141 143 106 127 205 220 186 193 212 236 199 166 199 195 174 215 235 244 192 171 201 196 194 199 158 186 247 127 274 275 170 200 258 22 59 347 320 104 131 208 233 120 168 233 130 156 251 229 267 274 231 243 241 195 190 195 194 196 191 191 184 177 185 176 173 181 169 168 182
197 211 260 228 225 226 213 184 167 156 142 190 217 227 209 218 225 216 193 165 159 137 171 219 221 209 200 190 194 178 176 190 176 187 215 203 232 207 170 181 161 133 164 137 171 228 106 219 274 294 235 273 38 89 205 223 33 57 18 331 75 192 215 160 163 190 201 261 275 291 295 254 199 187 185 196 198 186 185 185 180 190 186 175 172 170 188 200
181 244 262 184 195 202 183 163 156 159 198 206 210 218 217 228 230 222 216 205 186 180 204 214 206 216 223 202 196 181 184 196 176 182 214 201 222 231 202 180 152 138 37 76 143 188 93 195 245 317 328 244 186 201 197 188 173 140 167 201 200 186 172 234 225 158 184 244 257 291 286 257 192 186 185 190 193 182 179 181 184 191 179 170 170 173 185 191
173 247 217 171 177 174 156 153 177 184 208 223 217 221 230 239 238 229 223 214 215 221 189 180 192 200 206 214 215 185 176 203 193 192 222 217 213 237 222 179 153 152 90 58 149 194 154 193 223 243 235 222 227 223 200 188 180 178 185 189 195 192 152 243 256 197 189 234 201 235 271 262 197 178 182 174 180 180 174 174 181 181 169 171 176 172 176 187
193 236 172 169 175 165 152 176 214 181 216 225 218 235 234 238 245 237 228 212 219 231 204 188 199 199 206 208 198 183 181 207 204 196 222 221 207 219 223 172 151 149 139 130 215 216 155 145 226 249 239 233 258 288 120 163 168 187 211 192 183 184 172 205 240 224 186 232 192 231 266 272 175 159 172 164 168 171 170 168 166 172 173 170 174 175 179 194
219 206 144 166 175 165 162 228 206 196 234 220 231 256 243 242 249 228 212 205 210 212 212 221 202 206 223 204 178 197 198 217 217 199 211 224 207 222 241 164 149 138 135 159 216 219 149 133 219 264 279 293 344 15 33 44 63 241 239 191 183 203 201 209 229 180 155 218 192 230 258 265 298 157 164 153 159 161 166 167 159 168 177 165 170 182 190 202
194 154 124 171 181 177 185 220 194 207 231 216 234 247 240 248 246 224 205 203 198 175 196 224 212 216 227 187 184 208 196 215 238 210 200 207 204 278 310 174 164 157 169 189 178 180 199 178 167 276 301 295 291 331 347 358 167 228 230 185 202 215 203 226 264 94 231 233 211 228 258 254 221 151 161 151 164 171 170 169 160 160 169 170 177 189 195 200
165 180 112 176 189 197 214 215 188 208 217 215 235 238 233 244 234 211 201 203 197 167 191 228 208 195 202 172 195 218 203 215 241 223 183 203 231 314 342 214 189 183 191 202 171 177 190 185 169 204 265 270 274 282 282 212 201 226 220 196 205 201 188 203 220 169 231 236 211 220 248 251 195 154 186 183 181 182 167 159 160 157 167 179 184 190 191 185
183 208 174 161 189 213 240 229 185 212 201 200 232 234 226 234 237 200 194 206 208 186 201 229 180 172 193 179 198 230 224 221 229 222 181 199 234 280 310 329 328 186 173 100 159 160 141 221 206 212 232 244 257 266 200 120 187 221 207 204 202 195 197 201 190 209 222 228 234 234 237 249 252 212 195 200 196 194 178 163 167 172 179 182 177 175 161 109
202 210 186 160 173 213 226 222 208 222 209 196 214 232 216 219 229 217 201 205 199 194 216 232 187 188 193 174 200 234 230 216 218 229 229 217 222 308 293 324 35 211 155 137 179 132 113 244 224 218 233 243 253 263 241 142 236 248 230 209 200 198 204 204 213 224 203 122 254 249 230 238 253 241 211 210 208 203 189 175 180 182 179 173 158 147 105 23
203 212 183 173 183 202 205 207 203 215 224 215 224 252 234 215 209 206 206 206 198 195 208 231 214 205 195 186 206 233 220 189 211 229 231 227 212 169 318 276 223 235 165 158 236 126 145 246 234 215 238 250 255 265 262 247 257 261 250 216 204 208 208 211 224 228 208 201 248 256 242 235 248 246 227 217 208 204 191 180 180 167 155 148 132 117 33 315
196 245 188 182 201 204 198 199 195 208 222 220 225 240 237 224 212 207 183 171 216 211 202 220 223 207 202 204 210 224 210 172 209 229 219 221 215 171 178 252 228 220 173 168 226 129 158 250 239 207 247 260 258 258 258 256 261 264 256 226 217 223 217 218 230 233 226 233 248 259 263 259 257 249 238 218 191 188 173 162 161 150 150 152 141 148 232 243
192 204 182 180 209 208 192 191 189 206 219 215 224 234 232 225 222 217 181 184 212 211 198 219 228 206 206 213 212 224 220 187 211 230 198 198 221 182 188 218 163 150 196 173 168 234 219 240 193 155 253 267 262 246 242 245 251 261 260 236 224 234 231 228 234 235 233 240 248 254 262 266 264 254 242 209 162 153 152 162 166 160 159 152 152 182 201 153
203 197 185 168 209 203 186 182 188 203 216 213 223 227 223 226 221 211 209 216 218 202 179 212 227 216 210 218 218 228 227 205 219 232 194 188 209 191 200 199 150 152 191 177 158 207 216 227 81 115 234 263 267 217 237 256 263 266 264 246 226 229 234 231 232 231 226 233 247 252 252 257 260 245 187 175 156 155 169 171 163 163 162 152 165 189 164 127
204 196 190 183 219 205 199 195 184 197 220 216 213 216 221 227 217 200 217 236 229 218 198 206 220 218 212 224 225 227 227 214 219 227 183 182 200 187 215 202 167 163 166 172 183 184 184 201 178 152 215 269 23 108 129 37 299 269 261 236 216 221 232 236 239 238 229 223 238 242 238 247 250 140 152 176 166 171 180 170 160 166 166 163 175 171 145 142
Height
833 832 830 829 828 826 824 823 821 819 817 816 814 812 811 809 808 807 806 805 804 802 801 800 800 800 800 800 800 799 799 799 799 798 800 803 803 801 801 799 798 796 795 794 793 792 790 790 790 789 790 790 791 792 792 792 792 796 804 811 812 810 810 805 804 804 804 807 806 803 802 803 805 802 800 802 808 817 822 823 826 827 830 833 835 836 835 833
833 832 831 829 828 826 825 823 821 819 818 816 814 813 811 810 809 807 806 805 804 803 802 800 800 800 800 800 800 800 800 799 799 800 802 804 802 801 800 799 798 797 795 794 793 792 792 792 790 790 791 793 793 793 794 794 794 799 806 812 811 806 804 802 803 802 803 807 806 803 803 803 804 803 800 806 814 817 824 830 829 831 834 835 835 835 834 832
833 832 831 830 828 827 825 823 822 820 818 817 815 813 812 811 809 808 807 806 804 803 802 801 800 800 800 801 800 800 800 800 802 803 803 803 802 801 800 799 798 796 795 794 793 792 793 792 790 792 794 795 794 795 797 796 797 801 806 812 808 801 800 799 802 804 803 804 804 804 803 803 803 801 801 808 816 819 824 830 830 834 836 836 835 834 833 832
833 832 831 830 828 827 825 824 822 820 819 817 816 814 813 811 810 808 807 806 804 803 802 801 800 800 800 800 800 801 799 802 806 805 804 803 802 802 801 800 798 797 796 794 793 792 791 791 791 792 795 798 796 796 799 798 799 801 804 809 803 798 799 798 801 803 802 802 803 805 804 804 802 801 803 806 815 825 826 826 828 833 835 835 835 834 833 833
833 832 831 830 828 827 825 824 822 821 819 818 816 814 813 811 810 808 807 806 805 803 802 802 801 800 800 800 801 800 801 808 809 804 804 803 802 802 801 800 798 797 796 794 793 792 791 790 790 792 796 799 798 799 801 799 799 802 803 804 800 799 800 797 799 800 800 801 803 805 805 805 802 803 806 806 816 828 829 827 828 830 833 834 834 834 834 833
834 832 831 830 828 827 825 824 823 821 820 818 816 814 813 811 810 809 807 806 805 804 802 802 801 801 801 800 801 801 804 811 808 803 804 803 802 802 801 800 799 798 797 795 794 792 793 792 792 797 800 800 801 801 801 798 798 804 804 800 800 799 800 798 798 800 800 802 805 806 806 805 804 810 812 812 821 828 828 828 828 829 831 831 832 833 833 833
834 832 831 830 828 827 825 824 823 821 820 818 816 815 813 811 810 809 807 806 805 803 802 802 801 801 801 801 802 802 805 808 804 803 804 802 802 801 801 801 799 798 797 796 795 795 796 796 797 800 801 801 802 801 800 799 799 804 805 801 800 799 799 799 799 800 800 803 805 804 805 804 806 814 817 821 826 827 828 828 826 829 830 830 831 832 833 833
834 833 831 830 828 827 826 824 822 821 819 818 816 814 813 811 810 808 807 806 804 803 802 801 801 801 801 801 803 805 806 805 803 803 802 802 802 801 801 800 799 799 798 798 798 798 799 801 801 801 803 803 802 802 800 800 801 804 804 801 800 799 798 798 799 801 801 803 804 804 805 805 806 812 820 826 828 826 826 827 826 828 829 830 831 832 834 833
834 832 831 830 828 827 825 824 822 821 819 817 816 814 812 810 809 808 806 805 804 803 802 801 801 800 801 801 803 808 807 803 803 803 802 802 801 801 801 800 800 799 798 800 799 799 800 803 804 802 804 804 802 802 800 804 805 802 802 801 801 800 799 798 800 801 801 802 804 806 807 807 806 811 825 829 826 826 825 826 827 827 829 830 831 832 833 833
833 832 831 830 828 827 825 823 822 820 819 817 815 814 812 810 808 807 806 805 804 803 801 801 800 800 801 800 804 810 806 802 803 802 802 801 801 801 800 800 800 799 799 800 800 800 801 803 803 802 804 804 803 803 801 804 804 801 801 801 801 801 800 799 800 801 802 802 804 806 807 807 803 809 827 830 824 823 823 825 826 826 829 830 831 832 832 832
833 832 831 829 828 826 824 823 821 819 818 816 814 813 811 809 807 806 804 804 803 802 801 800 799 800 800 800 806 809 804 802 803 801 801 801 800 800 799 800 799 799 800 800 801 801 802 802 801 802 804 804 804 802 800 801 801 800 802 802 801 800 800 800 800 801 801 802 802 803 806 806 802 808 822 824 822 821 820 825 827 827 830 830 831 832 832 832
832 831 830 829 827 826 824 823 821 819 817 815 813 811 810 808 806 805 803 803 802 801 800 799 799 799 799 801 805 805 802 803 803 801 801 800 800 800 799 799 799 799 800 800 801 801 802 802 801 803 803 803 803 802 801 800 800 801 802 805 806 803 803 801 800 801 801 802 800 801 806 807 805 811 817 818 819 819 820 825 827 828 829 830 831 832 832 832
832 831 830 828 827 826 824 822 820 819 816 814 813 810 809 807 805 803 802 802 801 800 799 798 798 797 799 803 803 802 802 802 802 802 801 800 800 799 799 799 799 799 799 800 801 801 801 801 801 803 802 803 804 802 800 798 800 802 803 806 810 811 809 802 799 800 802 802 797 802 812 809 808 813 814 814 816 817 821 825 826 828 829 830 831 832 832 832
831 830 829 828 827 825 823 822 820 818 816 814 812 810 807 805 804 802 801 800 800 799 798 797 798 797 800 803 801 801 802 802 802 802 801 800 800 799 799 798 799 799 799 800 800 801 801 801 802 802 802 802 801 799 800 801 802 805 807 809 814 819 813 801 800 802 804 803 797 804 814 810 809 814 813 813 813 815 821 825 826 828 829 830 831 831 832 831
831 830 829 827 826 825 823 821 820 817 815 813 811 808 806 804 802 800 800 799 798 798 797 797 797 797 801 803 801 801 802 801 802 801 800 800 799 799 799 798 798 798 799 799 799 800 800 801 802 803 803 800 800 803 804 806 806 807 812 815 816 818 813 804 802 803 805 803 799 807 814 810 811 813 812 813 814 815 820 824 826 827 828 829 829 830 830 830
830 829 828 827 826 824 822 821 819 817 815 812 810 807 805 802 800 799 799 798 797 796 796 797 796 797 803 804 800 801 801 801 801 800 800 799 799 799 798 797 798 798 799 799 800 800 800 801 802 804 804 801 804 808 807 810 811 810 815 817 815 815 815 810 805 803 804 803 802 806 810 810 810 811 812 813 814 816 819 823 825 827 827 828 828 828 829 830
830 829 828 827 825 824 822 820 818 816 814 812 809 806 803 801 799 797 797 797 796 795 795 796 795 797 802 802 800 801 801 800 800 800 799 799 799 798 798 797 797 798 798 799 800 800 801 802 803 805 805 806 808 808 813 821 819 815 816 817 815 814 815 814 808 804 803 804 805 804 806 807 806 808 811 813 814 815 818 822 825 826 826 827 827 828 829 830
829 828 827 826 824 823 822 820 818 816 814 811 808 805 802 800 798 797 796 796 794 794 796 796 796 802 805 801 801 801 799 799 799 799 799 798 798 798 797 797 797 798 799 800 801 802 803 803 804 807 808 810 810 811 820 826 822 819 818 819 819 817 816 816 811 806 805 807 807 806 806 806 808 810 811 813 814 814 817 821 823 824 826 826 827 828 829 830
828 827 827 826 824 823 821 820 818 816 813 811 808 804 801 799 798 796 795 795 796 798 801 800 799 806 806 800 799 799 798 798 798 798 798 798 798 797 797 797 798 799 801 803 803 803 803 805 808 811 813 814 814 815 818 818 816 817 818 821 823 821 818 814 809 805 806 809 808 807 806 805 810 811 810 813 814 815 818 820 822 824 825 826 826 827 828 829
827 827 826 825 824 822 821 820 818 816 813 810 807 803 803 805 804 801 799 798 799 800 801 800 800 802 800 798 799 798 797 798 797 797 798 797 797 797 797 798 799 801 803 805 806 803 803 811 815 814 814 814 814 813 812 813 813 815 818 821 821 823 820 812 808 807 806 809 808 806 806 805 807 809 809 812 813 815 817 819 822 823 824 825 825 826 827 827
826 826 825 824 823 822 821 819 818 816 814 812 808 806 811 815 814 812 809 802 799 799 799 798 799 799 799 799 798 797 798 798 798 797 797 797 796 797 798 799 802 805 804 804 806 803 805 814 815 811 812 812 811 811 811 813 813 815 818 821 822 823 819 810 807 808 807 810 808 805 806 805 802 803 808 812 812 812 814 817 820 821 823 823 824 825 825 825
826 825 824 824 822 821 820 819 818 816 815 813 811 812 817 818 818 819 817 809 801 798 799 798 798 799 798 798 798 798 799 800 800 798 797 796 795 798 800 800 805 807 805 804 806 810 813 815 810 807 810 811 811 811 812 813 814 816 818 823 824 821 816 809 807 808 809 811 809 805 807 805 799 799 805 808 808 810 812 814 817 818 820 821 822 823 823 824
825 823 824 823 821 821 820 819 818 816 816 814 814 816 818 818 818 818 819 816 805 798 798 799 799 799 798 798 798 798 799 800 801 798 797 797 796 799 800 801 805 806 806 807 809 817 818 812 807 808 810 811 812 812 813 815 817 817 819 823 822 817 816 813 810 809 809 810 809 807 807 805 802 802 806 808 807 810 813 813 815 816 817 819 819 821 821 822
823 823 823 821 821 821 819 819 818 817 816 816 817 817 818 818 819 819 818 815 807 800 798 798 798 798 798 798 797 798 799 799 800 799 797 797 797 799 799 801 805 806 808 808 810 815 814 807 807 810 811 812 813 814 815 818 819 817 817 819 817 814 815 814 814 814 811 809 806 808 807 800 800 802 804 810 810 811 813 813 815 815 815 817 819 820 820 821
822 822 821 821 821 819 819 819 817 818 817 817 818 817 818 818 818 820 818 816 810 802 799 798 798 798 796 797 797 797 799 799 799 799 798 797 798 799 799 800 803 807 809 808 809 812 808 807 809 810 812 813 814 815 815 816 819 818 813 812 812 812 814 815 817 818 818 814 806 809 810 796 795 800 802 810 812 811 814 813 814 815 816 818 818 819 820 820
822 821 821 821 819 818 819 817 817 818 816 817 818 817 819 818 819 820 818 822 815 800 799 800 798 798 796 797 797 797 801 801 799 799 798 798 797 797 800 801 801 806 808 806 809 810 807 809 810 810 812 814 816 817 814 814 820 821 814 812 814 815 817 817 819 820 820 815 807 809 813 802 797 800 801 808 811 811 814 814 813 815 816 817 817 818 819 819
821 821 820 820 819 818 818 817 818 817 816 818 817 817 819 817 820 819 819 830 818 795 797 801 798 797 796 796 796 798 804 802 798 799 798 798 797 796 800 802 802 805 804 807 812 808 806 810 812 812 814 815 817 816 814 814 819 819 816 816 816 816 818 816 819 823 818 816 813 810 813 810 800 794 796 805 810 812 814 813 813 815 815 815 815 816 817 817
821 820 819 819 819 818 817 817 817 816 817 818 816 818 818 816 821 817 823 836 815 789 793 798 796 796 794 796 797 798 801 799 799 800 798 798 798 797 800 801 803 804 802 809 816 809 804 808 810 812 816 816 814 811 811 814 815 814 816 819 817 816 818 817 820 823 821 823 820 811 815 815 797 787 794 803 808 810 811 810 811 812 812 812 813 814 814 815
820 819 819 819 818 817 818 817 817 816 817 817 817 818 816 818 819 816 830 833 803 786 793 795 795 797 796 798 798 798 798 798 799 800 798 799 798 798 801 801 802 804 803 806 810 806 804 807 806 809 813 812 810 810 812 813 812 814 818 818 818 818 818 820 822 823 826 827 817 807 813 812 792 785 798 806 804 802 804 807 808 809 809 810 810 811 812 813
819 818 818 818 817 817 817 816 816 816 816 816 817 817 816 818 818 827 841 826 796 792 796 794 796 798 798 800 799 799 800 798 798 799 800 800 799 799 801 802 803 805 807 807 807 806 806 808 808 808 809 808 809 813 815 814 813 815 818 817 818 817 817 822 824 826 829 821 809 804 804 805 794 786 794 798 788 787 795 803 806 806 807 807 808 809 810 812
817 818 818 817 817 817 816 816 816 815 816 816 816 816 817 818 823 837 836 808 793 798 797 797 800 797 798 801 800 800 800 798 798 800 800 800 801 801 801 803 804 807 811 808 806 809 809 808 808 808 809 809 811 814 816 818 817 816 819 819 817 813 814 821 824 828 828 811 804 808 804 805 799 783 783 783 775 778 786 795 800 802 804 805 806 807 809 811
817 817 817 816 816 816 816 816 815 816 816 815 817 816 817 826 833 833 817 796 794 799 795 798 800 797 800 802 800 801 801 798 797 799 800 802 802 801 801 803 804 809 813 809 807 809 807 806 809 810 810 810 810 813 818 820 819 819 820 821 819 817 817 818 818 821 819 806 805 810 805 803 791 772 771 774 775 780 782 788 795 797 800 802 804 806 807 809
815 815 816 815 815 815 815 814 815 816 815 815 817 815 821 835 833 820 808 796 793 794 793 796 798 798 800 801 800 800 802 799 797 797 799 803 805 803 802 803 803 806 810 813 814 810 805 807 811 810 807 807 807 808 810 813 819 821 819 816 817 822 824 820 816 813 808 801 804 808 806 798 781 768 767 771 778 784 783 789 793 794 798 800 802 805 806 808
813 814 814 813 814 814 813 814 814 815 815 815 816 818 829 837 823 810 806 797 790 793 794 796 799 800 800 801 799 797 799 798 796 798 800 804 809 806 803 804 803 803 809 816 815 813 811 804 804 805 803 805 806 805 804 807 816 819 816 815 814 817 819 816 812 807 803 802 805 808 803 786 772 772 776 778 783 786 786 790 792 793 797 798 800 804 804 806
812 812 812 812 812 812 811 813 812 814 815 814 816 823 830 828 815 808 803 794 791 795 797 797 800 802 803 803 799 795 796 797 799 802 803 805 807 805 800 800 801 804 810 814 811 813 812 800 802 809 806 806 807 807 808 807 811 817 818 817 814 809 808 811 813 813 814 814 808 802 791 777 775 782 786 785 785 787 788 790 792 794 795 797 799 801 801 801
811 811 811 810 810 810 811 811 811 813 813 814 821 825 819 811 804 801 793 786 787 791 797 801 801 804 806 803 800 798 797 799 802 804 805 807 805 803 798 794 796 799 802 806 805 806 804 799 808 813 808 811 812 809 811 807 806 815 817 813 813 812 807 809 817 823 827 819 800 788 779 774 779 783 787 788 786 788 790 789 790 792 793 795 796 797 797 796
809 809 809 808 807 808 809 809 810 812 812 814 819 816 808 799 793 790 785 783 786 787 793 801 798 797 800 798 798 799 799 802 804 803 805 806 799 796 796 791 792 793 792 796 798 801 801 798 807 812 806 812 819 813 812 813 809 812 813 808 811 816 813 814 822 826 829 819 796 783 779 771 769 774 786 792 787 787 789 786 788 789 790 791 792 794 794 793
807 808 807 805 805 806 807 809 809 810 812 815 815 808 801 795 786 783 782 782 784 785 791 797 793 790 792 792 793 798 801 802 804 804 804 801 792 786 788 788 790 793 792 794 796 801 804 799 806 820 815 811 818 813 808 814 814 810 811 809 810 813 813 818 826 823 821 816 793 778 777 770 761 766 782 788 782 783 786 783 784 785 786 788 788 790 791 792
806 808 804 801 802 804 806 808 808 811 812 813 813 805 795 789 782 779 780 780 782 786 790 790 788 788 789 788 790 796 800 799 802 804 800 795 790 783 781 783 789 795 795 794 795 799 803 800 803 819 823 814 814 813 805 808 816 815 814 813 811 812 810 812 819 815 812 810 794 779 771 760 750 751 761 770 772 776 780 779 779 780 781 784 786 788 790 792
805 807 801 797 800 802 804 807 809 811 809 803 802 798 790 784 780 777 777 778 779 781 785 785 786 788 786 786 786 788 794 797 798 801 797 790 785 781 780 779 785 796 799 796 798 799 803 804 801 812 826 816 804 803 797 795 806 813 815 815 813 813 811 811 813 809 805 805 804 798 774 745 742 748 747 754 763 769 772 773 774 776 779 782 784 787 788 789
804 804 798 795 799 800 803 808 808 807 804 796 793 792 787 781 777 776 774 776 777 774 776 779 782 783 783 785 784 782 789 794 794 795 792 786 783 779 777 776 780 792 798 797 799 798 799 802 800 804 813 806 793 793 794 792 794 798 801 803 803 805 808 812 812 806 805 802 798 799 773 734 736 752 748 750 759 762 766 768 769 774 777 781 783 784 785 787
801 799 794 795 798 798 802 806 803 801 798 792 787 785 782 778 775 775 773 775 776 773 773 774 777 779 779 779 780 779 781 785 788 790 785 781 779 775 773 776 779 783 788 793 797 796 796 800 800 795 792 793 794 797 799 798 795 795 796 794 795 800 801 803 803 799 803 803 793 795 779 741 737 751 749 751 757 758 762 764 767 773 776 779 781 781 783 785
795 794 794 795 796 797 801 802 801 799 793 786 783 780 778 776 774 773 773 774 775 773 774 774 774 775 774 774 777 778 778 778 777 779 780 777 774 774 777 780 781 781 784 791 795 796 796 797 798 792 784 788 800 806 806 805 803 800 797 795 795 792 787 787 790 793 801 800 794 801 786 747 741 754 752 752 756 757 762 764 766 773 775 777 779 779 782 783
790 791 794 796 797 797 796 792 791 794 789 785 783 780 777 775 771 770 771 770 770 771 771 771 770 769 769 770 772 773 777 776 770 769 773 771 772 780 783 781 779 778 778 782 785 787 790 791 795 798 792 784 788 795 798 803 807 800 792 794 792 786 787 788 790 800 804 789 786 797 777 741 745 759 753 754 758 757 762 765 765 770 773 775 777 778 780 781
789 790 791 793 795 795 791 783 782 785 785 785 785 779 776 772 764 764 767 766 765 765 766 765 764 764 767 770 771 771 771 770 766 768 770 768 773 784 787 784 781 777 777 781 780 779 783 784 785 791 793 782 769 766 771 783 798 799 790 790 789 788 790 786 789 803 798 777 777 783 761 739 749 760 753 754 758 756 760 765 766 769 772 774 776 776 777 777
787 786 787 790 793 792 786 782 783 782 779 783 783 773 771 769 761 758 761 762 761 761 761 760 760 764 767 769 772 771 767 766 766 768 769 766 771 784 789 788 786 783 782 784 781 780 785 785 779 776 776 769 755 752 764 775 783 786 785 785 785 787 784 782 789 791 780 775 772 758 745 741 744 751 753 754 753 753 758 764 766 769 771 772 773 773 773 774
781 776 774 781 786 786 784 782 784 780 773 775 771 759 758 762 760 759 758 756 757 758 758 758 759 763 765 767 770 767 763 766 767 766 766 764 771 787 792 790 789 787 785 785 782 782 786 783 775 772 767 756 747 752 767 775 773 771 775 779 781 782 781 782 781 767 764 779 763 731 736 745 734 735 746 748 748 750 754 760 763 765 767 768 769 770 770 772
770 762 759 764 769 772 774 772 774 774 770 767 762 753 751 754 756 757 755 753 754 755 757 757 754 755 757 759 764 761 759 767 769 765 762 761 768 783 790 790 791 789 786 787 784 784 785 775 765 770 769 757 755 763 769 774 774 768 768 773 775 776 776 776 768 754 757 767 741 715 729 739 727 729 735 736 741 743 747 754 757 759 762 764 766 767 768 771
759 756 754 756 755 756 757 758 764 769 766 765 762 751 746 749 751 750 750 753 754 750 750 750 746 748 753 752 755 754 753 760 763 758 758 758 760 770 777 779 786 791 789 787 788 789 785 773 765 771 772 763 764 771 774 778 779 769 765 768 768 765 767 765 758 752 754 751 730 721 731 727 718 722 726 728 735 739 743 751 753 756 760 762 764 765 767 769
742 743 745 749 749 747 750 754 761 763 760 761 756 743 741 746 746 744 744 745 744 742 743 742 739 742 745 744 745 742 738 745 748 744 749 754 756 763 766 762 773 791 793 787 790 791 783 775 773 780 781 770 766 773 778 780 779 769 762 762 761 759 760 759 753 751 754 748 732 732 739 725 709 712 720 727 734 740 746 749 751 754 758 759 761 764 765 767
728 730 734 742 744 742 746 749 752 756 755 750 743 737 740 739 734 738 740 731 727 733 738 736 733 736 739 740 739 734 731 737 737 734 739 745 746 750 752 750 760 779 790 790 788 787 786 783 783 791 788 770 768 781 782 780 785 778 760 756 761 758 750 745 743 741 743 741 736 741 742 722 705 711 721 726 732 739 743 745 749 752 754 757 758 760 763 765
726 729 730 736 738 735 737 740 745 747 738 728 730 732 731 725 725 734 738 728 722 726 728 726 726 732 737 737 731 725 726 732 735 738 742 743 742 743 744 746 750 760 777 788 786 784 786 782 782 790 785 775 782 791 787 789 787 762 733 732 745 748 739 737 736 729 728 733 735 734 722 705 705 717 723 726 732 736 738 742 746 749 752 754 755 757 761 764